GW1690 Weather Reports


Display with metric or nautical units.
time (UTC)temp
F
wind
direction
speed
MPH
gust
MPH
rain 1hr
in
rain 24hr
in
rain mn
in
humidity
%
barometer
mb
20260901072040 81 210 1.0 1.0 0.00 0.00 0.00 70 1058.2
20260901071521 81 190 1.0 2.0 0.00 0.00 0.00 69 1056.2
20260901071035 81 195 1.0 1.0 0.00 0.00 0.00 69 1055.6
20260901070555 81 209 1.0 1.0 0.00 0.00 0.00 69 1055.0
20260901070022 81 209 1.0 1.0 0.00 0.00 0.00 68 1053.1
20260901065522 81 211 1.0 1.0 0.00 0.00 0.00 68 1049.0
20260901065036 82 201 1.0 2.0 0.00 0.00 0.00 67 1047.1
20260901064521 82 207 1.0 2.0 0.00 0.00 0.00 67 1045.1
20260901064021 82 218 1.0 2.0 0.00 0.00 0.00 66 1043.9
20260901063523 82 182 1.0 2.0 0.00 0.00 0.00 66 1043.6
20260901063035 82 205 1.0 2.0 0.00 0.00 0.00 66 1042.9
20260901062522 82 121 1.0 1.0 0.00 0.00 0.00 66 1042.7
20260901062034 82 181 1.0 2.0 0.00 0.00 0.00 66 1041.4
20260901061522 82 208 1.0 2.0 0.00 0.00 0.00 66 1040.5
20260901061041 83 85 2.0 2.0 0.00 0.00 0.00 66 1040.5
20260901060524 83 171 1.0 2.0 0.00 0.00 0.00 65 1040.6
20260901060021 83 103 1.0 2.0 0.00 0.00 0.00 65 1040.3
20260901055603 83 134 1.0 2.0 0.00 0.00 0.00 65 1040.5
20260901055023 83 170 1.0 2.0 0.00 0.00 0.00 65 1040.2
20260901054605 83 174 1.0 3.0 0.00 0.00 0.00 65 1039.4
20260901054023 83 190 1.0 2.0 0.00 0.00 0.00 65 1038.5
20260901053525 83 168 1.0 2.0 0.00 0.00 0.00 64 1037.1
20260901053024 83 119 1.0 3.0 0.00 0.00 0.00 64 1036.2
20260901052527 83 201 1.0 2.0 0.00 0.00 0.00 64 1035.4
20260901052020 84 167 2.0 3.0 0.00 0.00 0.00 64 1034.5
20260901051522 84 154 2.0 3.0 0.00 0.00 0.00 64 1033.8
20260901051024 84 169 2.0 4.0 0.00 0.00 0.00 63 1033.1
20260901050527 84 132 2.0 5.0 0.00 0.00 0.00 63 1032.6
20260901050023 84 156 2.0 4.0 0.00 0.00 0.00 63 1032.1
20260901045546 84 152 2.0 3.0 0.00 0.00 0.00 63 1031.9
20260901045024 84 142 2.0 7.0 0.00 0.00 0.00 63 1032.2
20260901044521 84 153 2.0 4.0 0.00 0.00 0.00 63 1031.8
20260901044021 84 124 2.0 3.0 0.00 0.00 0.00 63 1031.9
20260901043532 84 152 2.0 4.0 0.00 0.00 0.00 63 1032.3
20260901043024 84 150 2.0 4.0 0.00 0.00 0.00 63 1033.1
20260901042521 84 152 2.0 3.0 0.00 0.00 0.00 63 1033.0
20260901042058 84 110 1.0 2.0 0.00 0.00 0.00 62 1031.9
20260901041521 84 167 1.0 3.0 0.00 0.00 0.00 62 1031.5
20260901041031 84 153 2.0 3.0 0.00 0.00 0.00 62 1030.6
20260901040600 84 141 1.0 2.0 0.00 0.00 0.00 62 1029.5
20260901040037 84 162 2.0 3.0 0.00 0.00 0.00 61 1029.1
20260901035534 85 127 2.0 4.0 0.00 0.00 0.00 61 1028.5
20260901035043 85 170 1.0 3.0 0.00 0.00 0.00 61 1027.0
20260901034522 85 141 2.0 3.0 0.00 0.00 0.00 60 1026.2
20260901034031 85 174 1.0 4.0 0.00 0.00 0.00 60 1025.2
20260901033525 85 159 1.0 4.0 0.00 0.00 0.00 60 1024.4
20260901033021 85 165 2.0 3.0 0.00 0.00 0.00 59 1023.7
20260901032525 86 149 2.0 6.0 0.00 0.00 0.00 59 1023.6
20260901032022 86 152 2.0 3.0 0.00 0.00 0.00 59 1022.7
20260901031525 86 163 2.0 3.0 0.00 0.00 0.00 58 1021.8
20260901031022 86 164 2.0 5.0 0.00 0.00 0.00 58 1020.9
20260901030542 86 150 2.0 5.0 0.00 0.00 0.00 58 1020.8
20260901030022 86 154 2.0 4.0 0.00 0.00 0.00 58 1021.3
20260901025522 87 169 2.0 3.0 0.00 0.00 0.00 58 1021.1
20260901025024 87 156 1.0 3.0 0.00 0.00 0.00 58 1020.8
20260901024520 87 143 2.0 4.0 0.00 0.00 0.00 58 1020.6
20260901024024 87 164 1.0 3.0 0.00 0.00 0.00 57 1020.4
20260901023525 87 164 1.0 3.0 0.00 0.00 0.00 57 1019.9
20260901023023 87 156 2.0 4.0 0.00 0.00 0.00 57 1019.6
20260901022543 87 159 2.0 4.0 0.00 0.00 0.00 57 1019.3
20260901022023 88 151 2.0 3.0 0.00 0.00 0.00 57 1019.4
20260901021524 88 167 1.0 2.0 0.00 0.00 0.00 57 1019.3
20260901021030 88 163 1.0 4.0 0.00 0.00 0.00 56 1018.3
20260901020523 88 172 1.0 3.0 0.00 0.00 0.00 55 1017.5
20260901020021 88 151 1.0 4.0 0.00 0.00 0.00 55 1017.2
20260901015521 89 159 1.0 3.0 0.00 0.00 0.00 55 1016.8
20260901015052 89 140 1.0 2.0 0.00 0.00 0.00 54 1016.4
20260901014524 89 146 1.0 3.0 0.00 0.00 0.00 54 1016.0
20260901014027 89 129 1.0 2.0 0.00 0.00 0.00 53 1015.6
20260901013540 89 185 1.0 2.0 0.00 0.00 0.00 53 1015.3
20260901013035 90 172 1.0 3.0 0.00 0.00 0.00 52 1014.9
20260901012531 90 192 1.0 3.0 0.00 0.00 0.00 52 1014.6
20260901012041 90 142 1.0 3.0 0.00 0.00 0.00 51 1014.3
20260901011539 90 171 1.0 3.0 0.00 0.00 0.00 50 1013.8
20260901011025 91 146 1.0 2.0 0.00 0.00 0.00 49 1013.7
20260901010542 91 175 1.0 3.0 0.00 0.00 0.00 49 1013.3
20260901010024 91 172 1.0 3.0 0.00 0.00 0.00 48 1013.1
20260901005522 91 166 1.0 2.0 0.00 0.00 0.00 47 1012.7
20260901005025 91 210 1.0 1.0 0.00 0.00 0.00 46 1012.4
20260901004522 92 206 1.0 1.0 0.00 0.00 0.00 44 1012.1
20260901004026 92 224 1.0 1.0 0.00 0.00 0.00 43 1011.8
20260901003531 92 187 1.0 2.0 0.00 0.00 0.00 43 1011.5
20260901003022 92 205 1.0 1.0 0.00 0.00 0.00 43 1011.5
20260901002523 93 220 1.0 1.0 0.00 0.00 0.00 42 1011.3
20260901002025 93 177 0.0 1.0 0.00 0.00 0.00 41 1011.2
20260901001549 93 0.0 0.0 0.00 0.00 0.00 42 1011.2
20260901001025 94 0.0 0.0 0.00 0.00 0.00 41 1011.0
20260901000531 0 162 0.0 1.0 0.00 0.00 0.00
20260901000022 94 225 0.0 1.0 0.00 0.00 0.00 41 1011.0
20260831235523 95 205 0.0 2.0 0.00 0.00 0.00 40 1010.9
20260831235022 95 209 0.0 1.0 0.00 0.00 0.00 40 1010.9
20260831234538 95 152 0.0 1.0 0.00 0.00 0.00 40 1010.8
20260831234023 96 160 0.0 2.0 0.00 0.00 0.00 39 1010.7
20260831233524 96 158 1.0 2.0 0.00 0.00 0.00 39 1010.6
20260831233023 96 166 0.0 2.0 0.00 0.00 0.00 39 1010.7
20260831232526 96 182 0.0 2.0 0.00 0.00 0.00 38 1010.6
20260831232024 96 210 0.0 2.0 0.00 0.00 0.00 37 1010.4
20260831231529 97 190 1.0 2.0 0.00 0.00 0.00 37 1010.4
20260831231022 97 137 1.0 3.0 0.00 0.00 0.00 37 1010.3
20260831230521 97 191 1.0 2.0 0.00 0.00 0.00 37 1010.2
20260831230021 97 211 1.0 2.0 0.00 0.00 0.00 37 1010.2
20260831225521 97 232 0.0 1.0 0.00 0.00 0.00 37 1010.2
20260831225024 97 139 0.0 2.0 0.00 0.00 0.00 36 1010.0
20260831224523 97 167 1.0 2.0 0.00 0.00 0.00 35 1010.0
20260831224024 98 128 2.0 5.0 0.00 0.00 0.00 36 1009.9
20260831223544 98 143 1.0 4.0 0.00 0.00 0.00 36 1009.9
20260831223020 98 151 1.0 2.0 0.00 0.00 0.00 36 1009.9
20260831222532 98 130 1.0 3.0 0.00 0.00 0.00 36 1009.9
20260831222022 98 108 1.0 3.0 0.00 0.00 0.00 36 1010.1
20260831221523 98 149 1.0 2.0 0.00 0.00 0.00 36 1010.1
20260831221042 98 140 1.0 4.0 0.00 0.00 0.00 35 1010.0
20260831220533 98 151 1.0 4.0 0.00 0.00 0.00 36 1010.0
20260831220024 98 138 1.0 4.0 0.00 0.00 0.00 37 1010.1
20260831215528 98 279 0.0 3.0 0.00 0.00 0.00 36 1010.1
20260831215041 98 165 0.0 2.0 0.00 0.00 0.00 36 1010.2
20260831214534 98 181 0.0 2.0 0.00 0.00 0.00 35 1010.1
20260831214021 98 141 1.0 4.0 0.00 0.00 0.00 36 1010.0
20260831213524 99 143 1.0 3.0 0.00 0.00 0.00 35 1009.9
20260831213101 99 147 1.0 3.0 0.00 0.00 0.00 35 1009.7
20260831212522 99 139 2.0 4.0 0.00 0.00 0.00 34 1009.6
20260831212043 99 137 1.0 3.0 0.00 0.00 0.00 34 1009.6
20260831211523 100 142 1.0 4.0 0.00 0.00 0.00 33 1009.4
20260831211022 100 151 1.0 3.0 0.00 0.00 0.00 33 1009.5
20260831210523 100 176 1.0 4.0 0.00 0.00 0.00 35 1010.0
20260831210022 99 111 1.0 3.0 0.00 0.00 0.00 35 1009.8
20260831205541 100 135 1.0 3.0 0.00 0.00 0.00 35 1009.9
20260831205023 100 143 1.0 4.0 0.00 0.00 0.00 35 1010.0
20260831204523 99 49 1.0 4.0 0.00 0.00 0.00 35 1010.0
20260831204022 99 293 1.0 4.0 0.00 0.00 0.00 35 1010.0
20260831203523 99 154 1.0 4.0 0.00 0.00 0.00 35 1009.8
20260831203043 99 140 1.0 3.0 0.00 0.00 0.00 37 1010.3
20260831202524 99 150 1.0 3.0 0.00 0.00 0.00 37 1010.4
20260831202021 99 122 1.0 3.0 0.00 0.00 0.00 36 1010.4
20260831201520 99 135 2.0 3.0 0.00 0.00 0.00 37 1010.4
20260831201020 99 257 1.0 3.0 0.00 0.00 0.00 36 1010.5
20260831200540 99 156 1.0 3.0 0.00 0.00 0.00 36 1010.4
20260831200024 99 147 1.0 4.0 0.00 0.00 0.00 35 1010.2
20260831195544 99 139 1.0 3.0 0.00 0.00 0.00 37 1010.7
20260831195024 98 129 1.0 4.0 0.00 0.00 0.00 37 1011.0
20260831194524 98 151 1.0 3.0 0.00 0.00 0.00 37 1010.7
20260831194022 98 178 1.0 3.0 0.00 0.00 0.00 36 1010.5
20260831193541 98 141 1.0 4.0 0.00 0.00 0.00 37 1010.7
20260831193041 98 127 1.0 4.0 0.00 0.00 0.00 37 1010.8
20260831192522 98 150 1.0 3.0 0.00 0.00 0.00 37 1011.0
20260831192028 98 148 2.0 4.0 0.00 0.00 0.00 38 1011.0
20260831191521 99 140 1.0 4.0 0.00 0.00 0.00 37 1010.6
20260831191044 98 174 1.0 3.0 0.00 0.00 0.00 38 1011.2
20260831190532 98 263 1.0 3.0 0.00 0.00 0.00 37 1010.9
20260831190022 98 184 1.0 4.0 0.00 0.00 0.00 38 1011.0
20260831185522 98 152 1.0 5.0 0.00 0.00 0.00 37 1011.2
20260831185029 98 146 2.0 5.0 0.00 0.00 0.00 37 1010.9
20260831184542 98 237 1.0 5.0 0.00 0.00 0.00 38 1011.2
20260831184023 98 148 1.0 5.0 0.00 0.00 0.00 38 1011.4
20260831183522 99 130 1.0 5.0 0.00 0.00 0.00 39 1011.4
20260831183042 99 181 1.0 5.0 0.00 0.00 0.00 38 1011.3
20260831182522 99 213 1.0 3.0 0.00 0.00 0.00 38 1011.2
20260831182023 99 154 1.0 4.0 0.00 0.00 0.00 38 1011.4
20260831181522 99 258 1.0 4.0 0.00 0.00 0.00 36 1010.9
20260831181023 98 182 1.0 3.0 0.00 0.00 0.00 39 1011.4
20260831180551 98 134 1.0 3.0 0.00 0.00 0.00 39 1011.6
20260831180024 98 162 1.0 3.0 0.00 0.00 0.00 39 1011.6
20260831175536 98 134 2.0 6.0 0.00 0.00 0.00 38 1011.5
20260831175023 98 160 1.0 5.0 0.00 0.00 0.00 39 1011.6
20260831174525 98 158 2.0 4.0 0.00 0.00 0.00 38 1011.6
20260831174019 98 150 1.0 4.0 0.00 0.00 0.00 39 1011.7
20260831173523 98 158 2.0 5.0 0.00 0.00 0.00 38 1011.6
20260831173026 97 143 1.0 5.0 0.00 0.00 0.00 40 1012.0
20260831172523 96 177 1.0 3.0 0.00 0.00 0.00 39 1012.0
20260831172043 96 161 2.0 6.0 0.00 0.00 0.00 41 1012.2
20260831171523 96 129 2.0 4.0 0.00 0.00 0.00 41 1012.4
20260831171030 96 138 2.0 4.0 0.00 0.00 0.00 41 1012.3
20260831170521 95 185 1.0 4.0 0.00 0.00 0.00 41 1012.4
20260831170021 94 141 2.0 5.0 0.00 0.00 0.00 42 1012.7
20260831165545 94 126 2.0 4.0 0.00 0.00 0.00 42 1012.7
20260831165021 94 131 2.0 3.0 0.00 0.00 0.00 42 1012.7
20260831164523 94 167 2.0 4.0 0.00 0.00 0.00 43 1012.8
20260831164035 93 127 2.0 5.0 0.00 0.00 0.00 43 1012.8
20260831163527 93 114 2.0 6.0 0.00 0.00 0.00 43 1012.8
20260831163029 92 149 1.0 3.0 0.00 0.00 0.00 43 1012.9
20260831162537 92 141 2.0 3.0 0.00 0.00 0.00 43 1012.9
20260831162045 92 112 2.0 5.0 0.00 0.00 0.00 44 1013.2
20260831161521 93 125 2.0 4.0 0.00 0.00 0.00 43 1012.8
20260831161022 93 150 2.0 4.0 0.00 0.00 0.00 43 1012.9
20260831160524 92 226 1.0 2.0 0.00 0.00 0.00 44 1013.2
20260831160024 91 126 1.0 4.0 0.00 0.00 0.00 45 1013.2
20260831155521 91 146 2.0 4.0 0.00 0.00 0.00 45 1013.3
20260831155031 91 160 2.0 5.0 0.00 0.00 0.00 45 1013.1
20260831154523 90 145 2.0 4.0 0.00 0.00 0.00 46 1013.4
20260831154022 90 132 2.0 5.0 0.00 0.00 0.00 46 1013.5
20260831153542 90 133 2.0 3.0 0.00 0.00 0.00 47 1013.7
20260831153022 89 128 2.0 5.0 0.00 0.00 0.00 46 1013.5
20260831152524 89 170 2.0 4.0 0.00 0.00 0.00 48 1013.8
20260831152023 88 144 2.0 3.0 0.00 0.00 0.00 48 1013.8
20260831151523 88 155 2.0 4.0 0.00 0.00 0.00 49 1013.9
20260831151028 87 137 2.0 5.0 0.00 0.00 0.00 50 1014.0
20260831150545 87 140 2.0 4.0 0.00 0.00 0.00 50 1014.0
20260831150022 86 138 1.0 3.0 0.00 0.00 0.00 51 1014.2
20260831145523 86 141 2.0 5.0 0.00 0.00 0.00 50 1014.1
20260831145024 85 138 2.0 5.0 0.00 0.00 0.00 52 1014.5
20260831144523 85 155 2.0 3.0 0.00 0.00 0.00 52 1014.4
20260831144023 84 135 2.0 4.0 0.00 0.00 0.00 52 1014.7
20260831143538 84 156 2.0 3.0 0.00 0.00 0.00 52 1014.7
20260831143040 83 140 2.0 3.0 0.00 0.00 0.00 54 1015.2
20260831142523 83 165 2.0 5.0 0.00 0.00 0.00 54 1015.3
20260831142124 82 168 2.0 4.0 0.00 0.00 0.00 55 1015.8
20260831141545 82 123 2.0 3.0 0.00 0.00 0.00 56 1016.4
20260831141027 81 142 2.0 2.0 0.00 0.00 0.00 56 1016.7
20260831140525 81 160 2.0 4.0 0.00 0.00 0.00 56 1017.0
20260831140039 80 177 1.0 2.0 0.00 0.00 0.00 57 1017.9
20260831135524 80 170 1.0 2.0 0.00 0.00 0.00 58 1017.5
20260831135038 80 141 1.0 2.0 0.00 0.00 0.00 58 1018.7
20260831134525 79 158 1.0 3.0 0.00 0.00 0.00 58 1018.4
20260831134055 79 139 1.0 2.0 0.00 0.00 0.00 59 1019.8
20260831133526 78 140 1.0 2.0 0.00 0.00 0.00 59 1019.8
20260831133114 78 110 1.0 2.0 0.00 0.00 0.00 60 1021.4
20260831132524 77 149 1.0 1.0 0.00 0.00 0.00 62 1025.6
20260831132025 77 116 1.0 2.0 0.00 0.00 0.00 62 1025.1
20260831131544 77 115 1.0 1.0 0.00 0.00 0.00 63 1027.2
20260831131024 76 135 1.0 3.0 0.00 0.00 0.00 63 1028.5
20260831130540 76 135 1.0 2.0 0.00 0.00 0.00 64 1031.3
20260831130039 0 138 1.0 1.0 0.00 0.00 0.00
20260831125524 75 114 1.0 2.0 0.00 0.00 0.00 65 1033.6
20260831125025 75 126 1.0 2.0 0.00 0.00 0.00 66 1039.6
20260831124525 75 134 1.0 2.0 0.00 0.00 0.00 67 1042.4
20260831124053 74 120 1.0 1.0 0.00 0.00 0.00 67 1042.1
20260831123525 74 121 1.0 1.0 0.00 0.00 0.00 67 1043.3
20260831123131 74 136 1.0 1.0 0.00 0.00 0.00 68 1047.0
20260831122555 74 207 0.0 1.0 0.00 0.00 0.00 67 1044.3
20260831122056 74 200 1.0 1.0 0.00 0.00 0.00 67 1044.0
20260831121546 74 210 0.0 1.0 0.00 0.00 0.00 67 1044.3
20260831121040 73 173 1.0 1.0 0.00 0.00 0.00 67 1043.2
20260831120543 73 201 1.0 1.0 0.00 0.00 0.00 67 1043.5
20260831120115 73 184 1.0 1.0 0.00 0.00 0.00 68 1045.2
20260831115606 73 163 1.0 1.0 0.00 0.00 0.00 68 1045.7
20260831115041 73 172 1.0 1.0 0.00 0.00 0.00 68 1045.0
20260831114541 73 132 1.0 1.0 0.00 0.00 0.00 68 1046.6
20260831114045 73 217 1.0 2.0 0.00 0.00 0.00 67 1044.4
20260831113526 73 144 1.0 1.0 0.00 0.00 0.00 67 1044.9
20260831113026 73 129 1.0 1.0 0.00 0.00 0.00 67 1045.0
20260831112542 73 201 1.0 1.0 0.00 0.00 0.00 67 1043.6
20260831112102 73 157 1.0 1.0 0.00 0.00 0.00 67 1044.0
20260831111542 73 219 1.0 1.0 0.00 0.00 0.00 67 1042.9
20260831111026 73 188 0.0 1.0 0.00 0.00 0.00 67 1041.8
20260831110528 73 173 1.0 2.0 0.00 0.00 0.00 67 1043.9
20260831110047 73 185 1.0 1.0 0.00 0.00 0.00 68 1044.8
20260831105542 73 215 1.0 1.0 0.00 0.00 0.00 67 1044.9
20260831105028 73 196 1.0 1.0 0.00 0.00 0.00 68 1045.8
20260831104528 73 139 1.0 1.0 0.00 0.00 0.00 68 1048.0
20260831104047 73 157 1.0 1.0 0.00 0.00 0.00 68 1049.9
20260831103532 73 130 1.0 2.0 0.00 0.00 0.00 69 1050.7
20260831103027 73 142 1.0 1.0 0.00 0.00 0.00 69 1053.3
20260831102529 73 198 1.0 1.0 0.00 0.00 0.00 69 1053.8
20260831102042 73 195 1.0 1.0 0.00 0.00 0.00 69 1054.5
20260831101548 73 206 1.0 1.0 0.00 0.00 0.00 69 1054.1
20260831101108 73 208 1.0 1.0 0.00 0.00 0.00 69 1053.6
20260831100527 73 211 1.0 1.0 0.00 0.00 0.00 69 1052.9
20260831100029 73 232 1.0 1.0 0.00 0.00 0.00 69 1051.6
20260831095528 73 210 1.0 1.0 0.00 0.00 0.00 68 1051.4
20260831095044 74 213 1.0 1.0 0.00 0.00 0.00 68 1049.1
20260831094549 74 190 0.0 1.0 0.00 0.00 0.00 68 1048.3
20260831094028 74 186 1.0 1.0 0.00 0.00 0.00 68 1047.3
20260831093617 74 157 1.0 1.0 0.00 0.00 0.00 68 1047.0
20260831093028 74 180 1.0 1.0 0.00 0.00 0.00 67 1045.7
20260831092624 74 150 0.0 1.0 0.00 0.00 0.00 67 1046.7
20260831092049 74 206 1.0 2.0 0.00 0.00 0.00 67 1045.5
20260831091529 74 205 0.0 1.0 0.00 0.00 0.00 67 1044.8
20260831091030 0 218 0.0 1.0 0.00 0.00 0.00
20260831090529 74 96 0.0 0.0 0.00 0.00 0.00 67 1042.9
20260831090049 75 0.0 0.0 0.00 0.00 0.00 66 1041.1
20260831085549 75 0.0 0.0 0.00 0.00 0.00 65 1038.6
20260831085049 75 0.0 0.0 0.00 0.00 0.00 65 1038.9
20260831084530 75 107 0.0 0.0 0.00 0.00 0.00 64 1034.6
20260831084050 75 126 0.0 1.0 0.00 0.00 0.00 64 1033.2
20260831083530 76 159 0.0 1.0 0.00 0.00 0.00 63 1031.2
20260831083029 76 148 0.0 0.0 0.00 0.00 0.00 63 1029.8
20260831082530 76 142 0.0 1.0 0.00 0.00 0.00 62 1027.5
20260831082030 76 140 0.0 1.0 0.00 0.00 0.00 62 1025.9
20260831081530 77 132 0.0 1.0 0.00 0.00 0.00 61 1024.3
20260831081029 77 129 1.0 1.0 0.00 0.00 0.00 60 1022.9
20260831080558 77 148 1.0 1.0 0.00 0.00 0.00 60 1021.4
20260831080030 77 141 1.0 2.0 0.00 0.00 0.00 59 1020.0
20260831075530 77 133 0.0 1.0 0.00 0.00 0.00 59 1019.3
20260831075031 77 136 1.0 1.0 0.00 0.00 0.00 58 1018.2
20260831074546 78 126 0.0 2.0 0.00 0.00 0.00 58 1017.6
20260831074031 78 129 1.0 3.0 0.00 0.00 0.00 57 1017.6
20260831073626 78 147 0.0 1.0 0.00 0.00 0.00 57 1017.5
20260831073123 78 111 0.0 1.0 0.00 0.00 0.00 57 1016.9
20260831072551 78 134 1.0 2.0 0.00 0.00 0.00 57 1016.7